When you browse on this site, cookies collect data to enhance your experience and personalize the content and advertising you see.
Visit our Privacy Policy to learn more. By continuing to use the site, you agree to this use of cookies and data.
  • In Germany
  • List of Countries
  • For 7 days
  • Water Temperature
  • Weather Map
  • Weather Widgets
  • user-avatar
    Login

    Hourly Weather Matlock

    Today, 23 September, Monday

    Time Temperature Precipitation Wind Pressure Humidity
    00:00 +13°C° 0 mm 2 mps 737 mmHg 96%
    01:00 +13°C° 0 mm 2 mps 737 mmHg 96%
    02:00 +13°C° 0 mm 2 mps 737 mmHg 96%
    03:00 +13°C° 0 mm 2 mps 737 mmHg 96%
    04:00 +12°C° 0 mm 3 mps 738 mmHg 96%
    05:00 +11°C° 0 mm 3 mps 738 mmHg 95%
    06:00 +11°C° 0 mm 3 mps 739 mmHg 95%
    07:00 +12°C° 0 mm 4 mps 739 mmHg 91%
    08:00 +13°C° 0 mm 4 mps 739 mmHg 86%
    09:00 +14°C° 0 mm 5 mps 740 mmHg 81%
    10:00 +15°C° 0 mm 5 mps 740 mmHg 76%
    11:00 +16°C° 0 mm 5 mps 740 mmHg 70%
    12:00 +16°C° 0 mm 5 mps 740 mmHg 64%
    13:00 +17°C° 0 mm 5 mps 740 mmHg 64%
    14:00 +17°C° 0 mm 5 mps 739 mmHg 65%
    15:00 +17°C° 0 mm 5 mps 739 mmHg 65%
    16:00 +16°C° 0.6 mm 5 mps 739 mmHg 73%
    17:00 +15°C° 0.6 mm 5 mps 738 mmHg 81%
    18:00 +14°C° 0.6 mm 5 mps 738 mmHg 89%
    19:00 +14°C° 0.2 mm 5 mps 738 mmHg 90%
    20:00 +14°C° 0.2 mm 5 mps 738 mmHg 91%
    21:00 +14°C° 0.2 mm 5 mps 738 mmHg 92%
    22:00 +14°C° 0.1 mm 5 mps 737 mmHg 93%
    23:00 +14°C° 0.1 mm 5 mps 737 mmHg 94%

    Tomorrow, 24 September, Tuesday

    Time Temperature Precipitation Wind Pressure Humidity
    00:00 +14°C° 0.1 mm 4 mps 737 mmHg 94%
    01:00 +14°C° 0 mm 4 mps 736 mmHg 95%
    02:00 +14°C° 0 mm 4 mps 736 mmHg 96%
    03:00 +14°C° 0 mm 3 mps 736 mmHg 96%
    04:00 +14°C° 0 mm 3 mps 735 mmHg 96%
    05:00 +14°C° 0 mm 3 mps 734 mmHg 96%
    06:00 +14°C° 0 mm 2 mps 734 mmHg 96%
    07:00 +14°C° 2.2 mm 3 mps 734 mmHg 95%
    08:00 +14°C° 2.2 mm 3 mps 733 mmHg 95%
    09:00 +15°C° 2.2 mm 4 mps 733 mmHg 94%
    10:00 +15°C° 2 mm 4 mps 732 mmHg 94%
    11:00 +16°C° 2 mm 3 mps 732 mmHg 94%
    12:00 +14°C° 2 mm 3 mps 732 mmHg 94%
    13:00 +14°C° 1.2 mm 3 mps 732 mmHg 92%
    14:00 +15°C° 1.2 mm 4 mps 732 mmHg 91%
    15:00 +15°C° 1.2 mm 4 mps 732 mmHg 89%
    16:00 +14°C° 0.1 mm 4 mps 732 mmHg 88%
    17:00 +14°C° 0.1 mm 4 mps 732 mmHg 87%
    18:00 +14°C° 0.1 mm 3 mps 732 mmHg 86%
    19:00 +13°C° 0 mm 4 mps 732 mmHg 89%
    20:00 +13°C° 0 mm 4 mps 732 mmHg 91%
    21:00 +12°C° 0 mm 4 mps 732 mmHg 93%
    22:00 +12°C° 0 mm 4 mps 732 mmHg 93%
    23:00 +12°C° 0 mm 4 mps 731 mmHg 94%

    Day after tomorrow, 25 September, Wednesday

    Time Temperature Precipitation Wind Pressure Humidity
    00:00 +12°C° 0 mm 3 mps 731 mmHg 94%
    01:00 +12°C° 0.1 mm 3 mps 731 mmHg 95%
    02:00 +12°C° 0.1 mm 3 mps 731 mmHg 95%
    03:00 +13°C° 0.1 mm 2 mps 730 mmHg 95%
    04:00 +13°C° 0.1 mm 2 mps 731 mmHg 96%
    05:00 +13°C° 0.1 mm 1 mps 731 mmHg 96%
    06:00 +13°C° 0.1 mm 1 mps 731 mmHg 96%
    07:00 +14°C° 0 mm 1 mps 731 mmHg 94%
    08:00 +14°C° 0 mm 1 mps 731 mmHg 93%
    09:00 +15°C° 0 mm 1 mps 732 mmHg 91%
    10:00 +15°C° 0 mm 2 mps 732 mmHg 90%
    11:00 +15°C° 0 mm 2 mps 733 mmHg 88%
    12:00 +16°C° 0 mm 2 mps 733 mmHg 86%
    13:00 +16°C° 0 mm 2 mps 734 mmHg 84%
    14:00 +16°C° 0 mm 2 mps 734 mmHg 83%
    15:00 +17°C° 0 mm 2 mps 734 mmHg 81%
    16:00 +16°C° 0 mm 2 mps 734 mmHg 83%
    17:00 +15°C° 0 mm 2 mps 734 mmHg 86%
    18:00 +14°C° 0 mm 1 mps 735 mmHg 89%
    19:00 +14°C° 0 mm 2 mps 735 mmHg 90%
    20:00 +14°C° 0 mm 2 mps 735 mmHg 91%
    21:00 +13°C° 0 mm 2 mps 735 mmHg 92%
    22:00 +12°C° 0 mm 3 mps 735 mmHg 92%
    23:00 +12°C° 0 mm 3 mps 734 mmHg 93%

    26 September, Thursday

    Time Temperature Precipitation Wind Pressure Humidity
    00:00 +12°C° 0 mm 3 mps 734 mmHg 94%
    01:00 +13°C° 0.3 mm 4 mps 734 mmHg 94%
    02:00 +14°C° 0.3 mm 5 mps 734 mmHg 94%
    03:00 +15°C° 0.3 mm 6 mps 734 mmHg 94%
    04:00 +14°C° 0.1 mm 6 mps 734 mmHg 93%
    05:00 +14°C° 0.1 mm 5 mps 734 mmHg 92%
    06:00 +13°C° 0.1 mm 5 mps 734 mmHg 92%
    07:00 +14°C° 0.2 mm 5 mps 734 mmHg 88%
    08:00 +14°C° 0.2 mm 5 mps 735 mmHg 84%
    09:00 +14°C° 0.2 mm 6 mps 735 mmHg 80%
    10:00 +15°C° 0 mm 6 mps 735 mmHg 76%
    11:00 +15°C° 0 mm 6 mps 736 mmHg 71%
    12:00 +16°C° 0 mm 6 mps 736 mmHg 66%
    13:00 +16°C° 0.1 mm 6 mps 736 mmHg 67%
    14:00 +15°C° 0.1 mm 6 mps 736 mmHg 68%
    15:00 +15°C° 0.1 mm 6 mps 736 mmHg 69%
    16:00 +14°C° 0.1 mm 5 mps 736 mmHg 72%
    17:00 +13°C° 0.1 mm 5 mps 736 mmHg 75%
    18:00 +12°C° 0.1 mm 4 mps 736 mmHg 78%
    19:00 +12°C° 0 mm 4 mps 736 mmHg 80%
    20:00 +11°C° 0 mm 4 mps 736 mmHg 83%
    21:00 +10°C° 0 mm 4 mps 737 mmHg 86%
    22:00 +10°C° 0 mm 4 mps 737 mmHg 86%
    23:00 +9°C° 0 mm 5 mps 737 mmHg 86%

    27 September, Friday

    Time Temperature Precipitation Wind Pressure Humidity
    00:00 +9°C° 0 mm 5 mps 737 mmHg 86%
    01:00 +9°C° 0 mm 5 mps 736 mmHg 87%
    02:00 +9°C° 0 mm 5 mps 736 mmHg 87%
    03:00 +9°C° 0 mm 5 mps 736 mmHg 88%
    04:00 +9°C° 0 mm 5 mps 736 mmHg 88%
    05:00 +9°C° 0 mm 5 mps 736 mmHg 88%
    06:00 +9°C° 0 mm 5 mps 735 mmHg 88%
    07:00 +10°C° 0 mm 6 mps 735 mmHg 85%
    08:00 +11°C° 0 mm 7 mps 735 mmHg 83%
    09:00 +12°C° 0 mm 8 mps 735 mmHg 80%
    10:00 +12°C° 0.3 mm 7 mps 735 mmHg 79%
    11:00 +14°C° 0.3 mm 7 mps 735 mmHg 78%
    12:00 +14°C° 0.3 mm 7 mps 735 mmHg 77%
    13:00 +12°C° 0.3 mm 7 mps 735 mmHg 79%
    14:00 +12°C° 0.3 mm 7 mps 735 mmHg 80%
    15:00 +12°C° 0.3 mm 7 mps 734 mmHg 81%
    16:00 +11°C° 0.1 mm 7 mps 735 mmHg 82%
    17:00 +11°C° 0.1 mm 6 mps 735 mmHg 82%
    18:00 +11°C° 0.1 mm 6 mps 735 mmHg 82%
    19:00 +10°C° 0 mm 6 mps 735 mmHg 83%
    20:00 +10°C° 0 mm 6 mps 735 mmHg 85%
    21:00 +10°C° 0 mm 6 mps 735 mmHg 86%
    22:00 +9°C° 0 mm 6 mps 735 mmHg 87%
    23:00 +9°C° 0 mm 6 mps 735 mmHg 87%

    28 September, Saturday

    Time Temperature Precipitation Wind Pressure Humidity
    00:00 +9°C° 0 mm 5 mps 735 mmHg 88%
    01:00 +9°C° 0 mm 6 mps 735 mmHg 87%
    02:00 +9°C° 0 mm 6 mps 735 mmHg 87%
    03:00 +9°C° 0 mm 7 mps 735 mmHg 86%
    04:00 +9°C° 0 mm 7 mps 735 mmHg 85%
    05:00 +10°C° 0 mm 7 mps 735 mmHg 84%
    06:00 +10°C° 0 mm 8 mps 735 mmHg 82%
    07:00 +10°C° 0 mm 7 mps 736 mmHg 80%
    08:00 +11°C° 0 mm 7 mps 736 mmHg 78%
    09:00 +11°C° 0 mm 7 mps 737 mmHg 76%
    10:00 +12°C° 0.2 mm 7 mps 737 mmHg 77%
    11:00 +12°C° 0.2 mm 7 mps 737 mmHg 77%
    12:00 +12°C° 0.2 mm 7 mps 737 mmHg 78%
    13:00 +12°C° 0.3 mm 7 mps 737 mmHg 77%
    14:00 +14°C° 0.3 mm 7 mps 737 mmHg 75%
    15:00 +14°C° 0.3 mm 7 mps 737 mmHg 74%
    16:00 +12°C° 0.1 mm 7 mps 737 mmHg 78%
    17:00 +11°C° 0.1 mm 6 mps 737 mmHg 81%
    18:00 +10°C° 0.1 mm 5 mps 737 mmHg 84%
    19:00 +10°C° 0 mm 5 mps 738 mmHg 86%
    20:00 +9°C° 0 mm 5 mps 738 mmHg 88%
    21:00 +8°C° 0 mm 4 mps 738 mmHg 89%
    22:00 +8°C° 0 mm 4 mps 738 mmHg 90%
    23:00 +8°C° 0 mm 4 mps 738 mmHg 90%
    Show more